Temp_Advection
nan nan nan nan nan nan nan nan nan nan nan nan nan nan nan nan nan nan nan nan nan nan nan nan nan nan nan nan nan nan nan nan nan nan nan nan nan nan nan nan nan nan nan nan nan nan nan nan nan nan nan nan nan nan nan nan nan nan nan nan nan nan nan nan nan nan nan nan nan
nan 1 0 0 0 0 0 0 0 0 -0 -0 -0 -0 -0 -0 -1 -2 -1 -0 0 0 0 0 1 1 1 2 2 2 1 1 0 1 0 -0 -0 0 -0 -1 -1 -1 -1 -0 -0 0 0 1 1 1 0 1 1 1 0 -0 -0 -1 -3 -3 -2 -1 0 0 0 0 0 0 nan
nan 0 0 0 0 0 0 0 0 0 -0 -0 -0 -0 -0 -0 -1 -1 -1 -0 0 1 1 1 1 1 1 1 2 2 2 1 1 1 0 -0 -0 -1 -0 -0 -0 -1 -1 -0 0 0 0 1 1 1 -0 0 1 2 1 -0 -1 -2 -2 -2 -1 -0 0 -0 -0 -0 0 0 nan
nan 0 0 0 0 0 -0 -0 -0 -0 -0 -0 -0 -0 -0 -0 -0 -0 -0 -0 0 0 0 0 0 0 1 1 1 1 1 1 1 0 -0 -0 -0 -0 -0 -0 -0 -1 -0 0 0 0 0 1 1 0 0 0 1 1 1 0 -0 -1 -2 -2 -1 -0 -0 -0 -0 -0 -1 -1 nan
nan 0 -0 -0 -0 -0 -0 -0 -0 -0 -0 -0 -0 -0 -0 -0 -0 -0 0 0 0 0 -0 -0 -0 0 0 1 1 1 0 0 0 0 0 0 0 1 -0 -1 -0 -0 0 0 -0 -0 0 1 1 1 1 1 1 0 0 0 0 -0 -1 -2 -2 -1 -0 -0 -0 -0 -1 -1 nan
nan -0 -0 -0 -0 -0 -0 -0 -0 -0 -0 -0 -0 -0 -0 -0 -0 0 0 0 0 0 -0 -0 -0 0 0 0 0 0 0 -0 -0 -0 -0 0 1 1 1 -0 -0 1 1 0 -0 -0 0 1 1 1 1 1 1 0 0 1 0 0 -0 -1 -2 -1 -1 -0 -0 -1 -2 -2 nan
nan -0 -0 -0 -0 -0 -0 -0 0 0 0 -0 -0 -0 -0 -0 -0 0 0 0 0 0 -0 -0 -0 0 0 0 0 0 -0 -0 -0 -0 -0 0 1 1 1 0 1 1 0 0 0 0 1 1 1 1 1 1 1 0 0 0 0 0 0 -0 -1 -1 -2 -1 -0 -1 -1 -2 nan
nan 0 0 0 0 -0 -0 0 0 -0 -0 -0 -0 0 0 0 -0 -0 -0 -0 -0 0 -0 -0 -0 0 0 0 1 0 0 -0 -0 -0 0 1 1 0 0 0 1 1 -0 -0 0 1 1 1 1 1 0 0 0 0 0 0 0 0 0 0 -0 -1 -1 -1 -0 -0 -1 -2 nan
nan 0 0 -0 -0 -0 -0 -0 -0 -0 -0 -0 0 0 -0 0 -0 -0 -0 -0 -0 0 0 -0 -0 0 0 0 0 0 0 0 -0 0 0 1 0 0 0 0 0 0 0 1 1 1 1 1 1 1 1 0 0 0 0 0 0 0 -0 0 1 1 -0 -0 -0 -0 -1 -3 nan
nan 0 0 0 -0 -0 -0 -0 -0 -0 -0 0 0 0 -0 -0 -0 -0 -0 -0 -0 0 0 0 0 0 -0 -0 0 0 0 0 0 0 0 0 -0 -0 -0 -0 -0 0 0 0 0 0 0 0 0 0 0 0 1 1 1 0 0 0 0 0 1 1 0 0 -0 -0 -1 -2 nan
nan 0 0 0 -0 -0 -0 -0 -0 -0 -0 -0 -0 -0 0 0 0 -0 -0 -0 -0 -0 0 0 0 -0 -0 -0 0 0 0 0 0 0 0 -0 0 0 -0 -0 0 -0 -0 -0 -0 -0 -0 -0 -0 0 0 1 1 0 0 0 0 -0 -0 0 0 0 0 1 1 0 -0 -1 nan
nan -0 -0 -0 0 0 -0 -0 -0 -0 -0 -0 -0 -0 0 -0 -0 -0 -0 -0 -0 -0 -0 -0 -0 0 0 0 -0 0 0 0 0 0 -0 0 0 1 1 0 -0 -0 -0 -0 0 -0 -0 -0 0 0 0 0 0 0 0 0 -0 -0 -0 0 0 0 1 1 1 1 0 -0 nan
nan -0 -0 -0 0 0 0 0 -0 -0 -0 -0 -0 -0 -0 -0 0 0 0 -0 -0 -0 -0 -0 0 0 0 -0 -0 -0 0 0 -0 -0 -0 0 0 1 1 1 0 -0 -1 -0 -0 -0 -0 -0 0 0 0 0 -0 -0 -0 -0 0 0 0 -0 -0 1 1 1 0 -0 -0 -0 nan
nan -0 -0 -0 0 0 0 0 -0 -0 0 0 0 -0 -0 -0 -0 0 0 0 -0 -0 -0 0 1 0 -0 -1 -1 -0 -0 -0 -0 -0 0 0 0 1 1 1 -0 -1 -1 -0 0 0 -0 -0 -0 -0 -0 -0 -0 -0 0 0 0 0 -0 -0 0 0 0 -0 -1 -1 -1 -1 nan
nan 0 0 0 0 0 0 0 -0 -0 -0 -0 0 1 1 0 -0 -0 0 0 0 -0 -0 0 1 0 -0 -1 -0 -0 -0 0 0 -0 -0 -0 0 1 1 1 -0 -1 -1 0 0 -0 -0 -0 -0 -0 -0 -1 -0 0 1 1 0 0 -0 -0 -0 0 -0 -0 -0 -0 -1 -0 nan
nan 0 0 0 0 0 0 0 0 -0 -0 -1 -1 -0 0 1 1 0 -0 0 0 0 0 0 0 0 -0 -0 -0 -0 -0 0 0 0 0 0 0 0 0 0 -0 -1 -0 0 0 -0 -1 -1 -0 -0 -0 -1 -0 0 0 0 0 0 -0 -0 -0 -0 -0 -0 -0 -0 -0 0 nan
nan 0 0 0 0 0 0 0 0 0 -0 -1 -1 -1 -0 1 1 1 0 -0 0 0 0 0 0 0 0 -0 -0 -0 -0 0 0 0 -0 -0 0 0 0 0 -0 -0 -0 -0 -0 -1 -1 -1 -0 -0 -0 -0 -0 -0 0 1 1 0 0 -0 -0 -0 -0 0 0 0 1 1 nan
nan 0 0 0 0 0 0 0 0 -0 -0 -1 -1 -0 0 1 1 0 0 0 0 1 0 -0 -0 -0 0 -0 -0 -0 -0 0 0 -0 -0 -0 -0 -0 0 -0 -0 -0 -0 -1 -1 -1 -0 -0 0 0 0 0 0 0 0 0 0 0 0 0 0 0 0 0 1 1 1 1 nan
nan -0 -0 -0 0 0 0 0 0 0 0 0 -0 -1 -1 -0 -0 0 0 1 1 1 1 -0 -1 -1 -0 -0 -0 -0 0 0 -0 -0 -1 -1 -1 -0 -0 -0 -0 -0 -0 -0 0 1 1 0 0 0 0 0 0 0 0 0 0 0 0 0 0 0 0 0 1 1 1 1 nan
nan -0 -0 -0 -0 -0 0 0 0 0 0 1 1 -0 -1 -1 -1 -1 -0 -0 -0 0 0 0 -0 -0 -1 -0 -0 -0 -0 -0 -0 -0 -0 -0 -0 -0 -0 -0 -0 -0 -0 1 1 2 2 1 0 0 0 0 0 0 0 0 0 0 0 1 1 0 0 0 0 1 1 0 nan
nan -0 -0 -0 -0 -0 -0 0 0 0 0 0 0 1 1 0 -1 -0 -0 -0 -0 -0 -0 0 1 0 -0 -1 -1 -1 -0 -0 -0 -0 -0 0 0 0 0 0 0 0 1 1 2 2 1 0 0 0 0 0 0 0 0 0 0 0 0 1 1 0 1 0 0 0 0 0 nan
nan -0 -0 -0 -0 -0 -0 -0 0 0 0 0 0 0 1 0 0 -0 -0 -0 0 -0 -0 0 0 0 0 -0 -1 -1 -1 -1 -0 -0 0 0 0 1 1 1 1 1 1 1 1 1 0 0 0 0 0 0 0 0 0 0 -0 -0 0 0 0 1 1 1 0 0 0 0 nan
nan -0 0 -0 -0 -0 -0 -0 -0 -0 0 0 0 0 0 1 1 1 0 -0 -1 -0 -0 0 0 0 0 -0 -0 -0 -1 -1 -1 -0 0 0 0 0 1 1 1 1 0 0 1 0 0 0 -0 -0 0 0 0 0 0 0 -0 -0 -0 -0 0 1 1 0 0 0 0 0 nan
nan -0 -0 -0 -0 -0 -0 -0 -0 -0 -0 -0 0 0 1 1 1 1 1 1 0 -1 -1 -0 0 0 0 0 -0 -0 -1 -1 -1 -1 -0 0 0 0 0 0 0 0 -0 0 1 1 1 0 -0 -0 -0 0 0 1 0 -0 -0 -0 -0 0 1 1 0 0 0 0 0 0 nan
nan -1 -1 -0 -0 -0 -0 -0 -1 -1 -1 -0 -0 -0 0 0 0 1 1 1 1 1 -0 -1 -0 -0 -0 0 0 0 -0 -0 -1 -1 -0 -0 -0 -0 0 0 -0 -0 -0 0 1 1 1 0 -0 -0 -0 0 0 0 0 -0 -0 -0 -0 0 1 1 0 0 0 0 0 0 nan
nan -1 -1 -1 -1 -0 -0 -0 -0 -1 -1 -0 -0 -0 -0 0 0 0 0 1 1 1 1 1 0 -0 -0 -0 -0 0 0 0 -0 -0 -0 -0 -1 -1 -0 -0 -0 -0 -0 0 0 1 1 1 -0 -0 0 0 0 0 0 -0 -0 -0 -0 0 1 0 0 -0 -0 0 0 0 nan
nan -1 -1 -1 -1 -1 -1 -1 -1 -1 -1 -0 -0 -0 0 0 0 0 0 0 0 0 1 1 1 1 1 0 -0 -1 -1 -0 0 0 0 -0 -0 -0 -0 -0 -0 -1 -1 -0 0 1 1 0 0 0 -0 -0 0 0 0 -0 -0 -0 0 0 0 0 -0 -0 -0 0 -0 -0 nan
nan -0 -0 -1 -1 -1 -1 -1 -1 -1 -1 -1 -0 -0 0 0 0 0 0 0 0 0 0 0 0 1 1 1 1 0 -0 -1 -1 0 0 0 -1 -1 -1 -0 -0 -0 -0 -0 0 1 0 0 0 -0 -0 0 0 0 0 -0 -1 -0 0 0 0 0 -0 -0 -0 -0 -0 0 nan
nan -0 -0 -0 -1 -1 -1 -1 -1 -1 -1 -1 -1 -0 -0 0 0 0 0 0 -0 -0 -0 -0 0 0 1 1 1 1 1 0 -0 -1 -1 0 0 -1 -1 -1 -1 -0 -0 -0 1 1 1 0 -0 -0 -0 0 1 1 0 -0 -1 -1 0 1 1 -0 -0 -0 -0 -0 0 0 nan
nan -0 -0 -0 -1 -1 -1 -1 -1 -1 -1 -1 -1 -1 -1 -0 -0 0 0 0 0 -0 -0 -0 -0 0 0 0 0 0 0 1 0 0 -0 -0 -0 0 -0 -1 -1 -1 -1 -0 1 1 1 0 -0 -1 -1 -0 0 1 1 -0 -1 -1 -0 1 1 0 -0 -0 -0 -0 0 0 nan
nan -1 -1 -1 -1 -1 -1 -1 -1 -1 -1 -1 -1 -1 -1 -1 -1 -0 0 0 0 0 -0 -0 -0 0 0 0 0 0 0 0 0 0 0 0 0 -0 -0 -0 -1 -1 -1 -0 0 1 1 1 0 -1 -1 -0 0 0 0 0 -1 -1 -1 -0 0 1 0 0 -0 -0 -0 0 nan
nan -1 -1 -1 -1 -1 -1 -1 -1 -1 -1 -1 -1 -1 -1 -1 -1 -1 -0 -0 -0 0 0 0 0 0 0 0 0 0 0 -0 0 0 0 1 1 0 -0 -1 -1 -1 -1 -1 -1 0 1 1 0 -1 -1 -0 0 0 0 0 -0 -0 -1 -1 -0 0 1 1 0 -0 1 1 nan
nan -1 -1 -1 -1 -1 -1 -1 -1 -1 -1 -1 -1 -1 -1 -1 -1 -1 -1 -1 -0 -0 -0 -0 0 0 0 0 1 0 0 -0 0 0 0 0 0 0 -0 -1 -1 -1 -1 -1 -1 -1 -1 0 1 1 0 -0 -1 0 0 1 1 0 0 -0 -0 0 1 1 1 1 2 2 nan
nan -0 -1 -1 -2 -2 -2 -1 -1 -1 -1 -1 -0 -0 -1 -1 -1 -1 -1 -1 -1 -1 -0 -0 -0 -0 0 0 1 1 1 1 1 1 0 -0 -1 -1 -0 -1 -1 -0 -0 -1 -1 -1 -1 -1 0 1 1 0 -0 0 1 1 1 1 0 -0 -0 0 1 1 1 2 2 1 nan
nan 0 -0 -0 -1 -1 -2 -2 -2 -2 -2 -1 -1 -1 -0 -0 -1 -1 -1 -1 -1 -1 -1 -0 -0 -0 -0 0 0 0 1 1 1 1 0 -0 -1 -1 -1 -0 -0 -0 -0 -0 -1 -1 -1 -1 -0 0 0 0 1 1 1 1 1 0 0 -0 -0 0 1 1 2 2 1 1 nan
nan -0 -0 -0 -0 -1 -1 -1 -2 -2 -2 -2 -2 -1 -1 -1 -0 -0 -1 -1 -1 -1 -1 -1 -1 -0 -0 0 0 0 0 0 0 0 0 0 -0 -1 -1 -1 -0 -0 -0 -0 -0 -0 -0 0 0 0 0 0 1 1 1 1 1 0 -0 -0 -0 0 1 1 1 1 0 0 nan
nan -1 -0 -0 -0 -0 -0 -1 -1 -2 -2 -2 -2 -2 -2 -1 -1 -0 -0 -1 -1 -1 -1 -1 -1 -1 -0 -0 0 0 0 0 0 0 0 0 -0 -0 -1 -1 -1 -0 -0 -0 1 1 1 1 0 0 -0 0 0 1 1 1 0 0 0 -0 -0 0 1 1 1 1 0 0 nan
nan -1 -1 -1 -1 -0 -0 -0 -1 -1 -2 -2 -2 -2 -2 -2 -2 -1 -1 -1 -1 -1 -1 -1 -1 -1 -1 -0 -0 0 0 0 0 0 -0 -0 -0 -0 -1 -1 -1 -0 -0 -0 0 1 1 1 0 -0 -0 -0 0 0 0 0 0 0 0 -0 -0 0 1 1 1 0 0 0 nan
nan -1 -1 -1 -1 -1 -0 -0 -0 -1 -1 -2 -2 -2 -2 -2 -2 -1 -1 -1 -1 -1 -1 -1 -1 -1 -1 -1 -1 -0 0 0 0 0 0 -0 -0 -0 -0 -1 -0 -0 -0 -0 -0 0 1 1 0 0 -0 -0 -0 0 0 0 0 0 0 0 0 0 0 0 0 0 0 0 nan
nan -1 -1 -1 -1 -1 -1 -0 -0 -0 -1 -1 -2 -2 -2 -2 -2 -2 -1 -1 -1 -1 -1 -1 -1 -1 -1 -1 -1 -1 -0 0 1 1 1 0 -0 -0 -0 -0 -0 -0 -1 -1 -1 -0 0 0 0 0 0 -0 -0 -0 -0 -0 0 0 0 0 0 0 -0 -0 0 1 1 1 nan
nan nan nan nan nan nan nan nan nan nan nan nan nan nan nan nan nan nan nan nan nan nan nan nan nan nan nan nan nan nan nan nan nan nan nan nan nan nan nan nan nan nan nan nan nan nan nan nan nan nan nan nan nan nan nan nan nan nan nan nan nan nan nan nan nan nan nan nan nan
Wind_Speed
14 15 16 16 17 17 18 18 19 19 19 19 19 19 20 22 24 27 28 28 28 28 28 28 28 27 27 27 27 27 28 30 31 32 33 34 35 37 38 40 41 42 42 43 43 43 43 42 40 37 34 31 30 30 30 31 31 30 29 28 27 26 24 22 22 24 26 28 30
13 13 13 13 13 14 15 16 16 16 16 16 16 16 16 17 18 23 27 29 29 30 30 31 31 31 30 30 29 28 28 30 31 33 34 35 36 37 38 39 40 42 43 43 43 43 43 43 43 41 40 40 35 32 31 31 32 32 32 33 32 31 30 28 27 26 26 27 29
12 11 9 9 10 10 11 12 13 13 13 13 13 13 13 14 14 17 20 24 27 28 28 29 30 30 31 31 30 30 29 29 31 33 35 36 37 38 39 39 40 41 42 43 43 43 42 42 42 41 41 42 41 38 35 33 33 33 34 34 34 33 32 32 31 31 30 30 31
11 9 7 6 7 8 9 9 10 11 11 11 12 12 13 13 13 14 15 17 19 21 22 23 25 27 28 29 29 28 28 28 29 31 34 36 38 39 40 40 41 42 42 43 43 43 42 41 41 41 41 42 42 41 39 37 36 36 36 36 35 34 34 34 34 33 33 33 33
8 6 6 6 7 8 9 10 10 10 10 10 11 12 13 14 14 14 14 15 15 16 17 18 20 22 24 25 26 26 27 28 29 30 32 33 36 37 38 39 40 40 41 43 43 43 43 42 42 42 42 42 42 41 41 39 39 39 39 39 38 37 36 35 35 35 35 35 34
7 7 7 8 8 9 10 10 11 11 11 11 12 13 14 14 15 15 15 15 16 16 16 16 16 17 18 19 21 23 25 27 28 29 30 31 32 35 38 39 39 38 38 40 42 43 44 43 43 43 43 42 42 41 41 40 40 40 40 40 40 39 38 37 36 35 36 36 35
5 6 6 7 7 7 7 8 8 9 9 10 12 12 13 13 14 14 15 16 16 16 16 16 16 17 17 18 19 21 22 24 25 26 27 28 30 33 37 40 40 38 36 37 39 40 41 42 42 42 42 42 41 41 41 41 41 41 41 41 41 41 40 38 37 36 36 37 36
3 3 3 4 6 7 7 8 8 9 9 10 10 10 10 11 12 14 15 15 15 15 16 16 17 18 19 19 21 22 22 23 25 27 28 29 30 32 34 36 37 36 36 36 36 36 37 37 38 38 38 39 39 39 39 40 40 41 41 41 41 42 41 40 39 38 38 39 40
2 2 1 1 3 6 8 10 11 11 12 12 12 12 13 14 15 16 16 16 15 15 15 15 16 17 18 19 21 20 20 21 23 25 25 24 23 23 23 25 27 29 30 30 29 28 28 29 31 32 33 33 34 35 35 36 37 38 39 40 41 41 41 40 38 38 39 40 42
1 1 1 1 1 3 5 7 8 10 11 13 15 16 17 18 17 17 16 15 15 14 14 15 16 17 18 19 18 16 15 16 16 16 16 16 18 18 18 18 18 18 18 18 17 17 17 19 22 25 27 29 30 30 29 30 30 32 34 37 39 41 41 39 38 37 37 38 38
1 1 1 1 1 2 4 6 7 8 9 11 13 14 15 15 14 13 13 14 14 15 15 16 18 20 20 20 17 14 12 11 11 10 11 13 16 18 20 19 18 17 15 14 13 13 14 15 17 20 22 24 24 23 22 22 23 26 29 33 36 38 39 38 36 34 32 31 31
2 3 4 4 4 4 5 7 9 10 11 12 12 12 12 11 10 10 12 14 15 17 18 19 21 22 23 21 18 15 13 13 14 14 15 16 18 19 20 21 23 23 21 19 18 17 17 18 18 18 18 18 17 17 17 17 18 20 24 28 30 32 32 32 32 31 30 29 28
6 6 6 6 6 6 7 9 11 13 15 16 16 15 13 12 12 12 13 15 17 18 19 19 20 20 20 19 17 15 14 15 16 17 19 20 21 22 22 23 25 26 26 24 22 21 20 20 20 20 18 17 15 15 15 16 16 18 20 22 23 23 24 25 27 29 30 30 30
9 8 8 8 8 9 10 12 14 17 18 19 20 20 19 17 16 15 14 15 17 18 19 20 19 19 18 17 15 14 13 15 16 17 19 20 21 21 22 22 25 27 28 27 24 23 21 21 21 21 20 19 18 17 17 17 17 18 18 18 18 19 20 21 23 25 27 29 29
10 9 9 9 9 10 12 14 17 19 20 21 22 23 23 22 20 18 17 16 17 19 21 22 22 21 18 17 16 15 15 15 16 16 17 17 18 19 20 22 24 26 28 28 27 25 22 21 20 21 21 20 19 19 19 19 19 19 19 19 19 19 20 21 22 23 25 27 28
9 9 9 9 9 10 12 14 17 19 21 22 23 23 24 24 24 22 20 19 19 21 22 23 23 22 20 18 17 17 17 16 16 16 15 16 17 18 19 20 22 24 27 28 28 27 25 22 21 21 21 21 20 20 20 21 21 21 21 21 21 22 22 22 23 24 26 27 28
8 9 9 9 10 11 13 15 17 19 21 22 23 24 24 26 27 26 25 24 24 24 24 24 23 22 21 20 20 20 19 18 17 16 16 16 16 17 18 19 20 22 24 27 28 29 27 25 23 22 21 21 21 21 22 22 22 23 23 23 24 24 25 25 26 27 27 28 28
7 8 9 10 11 12 14 16 18 20 21 23 24 25 26 27 27 27 27 27 27 28 27 26 24 24 23 23 23 22 22 21 20 18 17 16 16 17 17 18 18 20 22 25 28 29 30 28 26 24 23 23 23 23 23 24 24 25 25 26 26 26 27 28 28 29 28 27 27
7 7 8 9 10 11 12 14 15 17 18 19 21 22 23 24 25 25 25 26 26 27 26 25 24 24 25 26 25 25 24 24 23 22 20 18 18 18 19 19 19 19 21 24 27 30 31 31 29 28 26 25 26 26 26 26 26 26 27 27 28 28 29 30 30 29 27 25 25
8 8 8 8 9 9 10 11 12 14 15 15 15 16 17 19 21 22 22 22 23 24 24 23 23 24 26 27 27 27 27 26 26 25 24 23 22 22 23 23 23 22 23 25 28 31 32 32 31 29 28 28 28 28 29 28 28 28 28 28 29 30 30 30 28 26 24 22 22
10 9 9 9 9 9 10 10 11 12 13 14 15 15 15 15 15 16 18 19 21 22 23 22 21 22 25 27 28 29 29 28 28 28 27 27 27 27 27 27 27 27 27 28 30 31 31 30 29 29 28 28 29 29 29 29 28 28 28 29 30 30 29 27 25 23 21 19 19
12 11 11 11 10 10 10 11 11 12 13 14 15 15 16 16 17 17 17 17 17 19 20 21 21 22 24 26 28 29 29 29 28 28 28 29 29 29 30 30 30 31 31 31 30 30 29 27 27 27 27 27 28 28 28 28 27 27 28 29 30 29 27 24 22 20 18 17 16
14 14 13 13 12 12 12 12 12 13 13 14 15 15 16 17 18 19 19 20 20 20 21 21 21 22 23 25 27 28 30 30 30 30 30 30 30 31 32 32 33 33 33 32 31 30 28 26 25 25 26 26 27 27 26 26 25 26 27 29 30 28 25 22 20 19 17 16 16
15 15 15 15 15 14 14 14 14 14 14 15 16 16 17 17 18 19 19 21 22 23 23 23 23 23 23 24 25 27 29 31 32 32 32 32 33 33 33 34 35 35 35 35 33 31 29 27 26 25 26 26 26 26 26 25 25 26 28 29 29 27 24 21 20 19 18 17 17
16 16 16 16 17 16 16 16 16 16 16 16 17 17 18 18 18 19 19 20 21 22 24 25 25 25 25 25 25 25 26 28 30 33 34 35 35 34 34 34 35 35 36 36 35 33 31 29 27 26 26 26 27 26 26 26 26 27 28 29 28 26 23 22 21 20 20 19 18
15 16 16 17 17 18 18 18 19 19 19 19 19 19 19 19 19 19 20 20 20 21 22 24 26 27 27 27 27 26 26 26 28 30 33 34 35 35 35 35 35 35 35 35 34 33 31 30 28 28 27 27 27 27 27 26 26 27 28 29 28 26 24 22 22 22 22 22 21
16 16 17 17 18 18 19 19 20 21 21 22 22 21 21 20 20 20 20 21 21 21 21 22 24 25 27 28 29 30 29 29 28 29 30 32 34 35 35 35 35 35 35 35 34 32 31 30 30 29 29 29 29 28 27 26 26 27 28 29 29 27 25 24 23 23 24 25 24
16 17 17 18 18 19 19 20 21 21 22 23 23 23 23 22 21 21 21 21 21 21 21 22 22 23 24 26 28 30 31 32 31 30 29 30 31 33 34 35 35 35 35 35 34 33 32 31 30 30 30 30 30 28 26 24 24 25 27 28 29 28 27 25 25 26 27 28 27
16 17 17 18 18 19 20 21 21 22 23 23 24 24 24 23 23 23 22 22 22 22 22 22 22 22 22 23 24 26 28 31 33 33 33 31 31 31 33 34 34 34 35 35 35 34 32 31 31 31 31 31 30 28 26 24 24 24 25 27 28 29 28 27 27 28 29 30 29
17 17 17 18 18 19 19 20 21 22 23 24 25 25 25 24 24 24 23 23 23 24 24 23 23 23 22 22 22 23 24 27 29 32 34 35 34 33 33 33 33 33 33 34 34 33 32 31 31 31 31 31 30 29 27 25 24 24 25 26 27 28 28 29 29 30 31 31 31
18 18 18 18 18 18 19 20 20 21 23 24 25 26 26 26 25 25 25 24 24 24 24 24 25 24 24 23 23 23 23 23 25 28 31 34 35 36 35 35 34 33 33 32 33 32 32 31 30 30 30 31 30 30 29 28 27 26 25 26 26 27 28 29 30 32 33 32 32
20 20 20 19 19 19 19 19 20 20 21 23 24 25 26 27 27 27 26 26 26 25 25 26 26 26 25 25 25 24 24 23 23 24 26 29 31 33 35 35 35 35 34 34 33 33 32 31 31 31 31 31 31 31 31 31 31 30 28 27 27 27 28 29 31 33 34 33 31
23 22 22 22 21 21 20 20 20 20 20 21 22 23 25 26 27 27 28 27 27 27 27 26 27 27 27 26 26 26 25 25 24 23 23 24 26 29 31 33 34 35 35 35 34 33 32 32 32 31 31 31 31 31 32 33 34 34 32 31 30 29 29 30 33 34 34 31 30
25 25 25 25 24 24 23 23 22 21 21 21 21 22 23 24 26 27 28 28 28 28 28 28 27 27 27 27 27 27 26 26 25 24 23 23 24 26 29 30 32 33 34 34 34 33 33 32 32 32 32 32 32 32 33 34 35 36 35 34 33 32 32 33 34 34 33 30 29
27 27 27 27 26 26 26 26 25 25 24 23 23 22 22 23 24 25 27 28 29 29 29 29 28 28 28 27 28 28 27 27 26 24 24 23 24 25 27 29 30 31 32 32 33 33 33 33 33 33 33 32 32 32 32 33 35 35 36 36 35 34 34 34 34 33 31 29 29
28 28 28 28 28 28 28 28 28 27 27 26 25 24 23 23 23 24 25 27 28 29 30 30 30 29 29 29 28 28 28 28 27 26 24 24 24 25 26 27 29 30 30 31 31 32 32 32 33 33 32 32 31 31 32 32 33 34 35 36 35 35 34 33 32 31 30 29 29
27 28 28 28 28 28 28 28 29 29 29 28 27 26 25 24 24 24 24 25 26 28 29 30 31 31 31 30 29 29 28 28 28 27 26 25 24 24 25 26 27 28 29 29 29 30 30 31 31 32 31 30 30 30 30 31 32 33 35 36 35 35 34 32 31 30 29 29 29
27 27 27 28 28 28 28 29 29 29 29 29 28 28 27 26 25 24 24 24 25 26 28 29 30 31 31 31 30 30 29 29 29 28 27 27 26 25 25 25 25 26 26 27 27 27 28 29 30 30 30 29 29 29 29 30 31 33 34 35 35 34 33 31 30 30 30 30 30
26 26 27 27 28 28 29 29 29 29 29 29 29 29 28 27 26 25 24 24 24 25 26 27 28 29 30 31 31 31 30 30 29 29 28 28 27 26 25 25 25 25 25 25 25 25 26 26 27 28 29 28 28 28 29 30 31 32 33 34 34 33 32 31 30 30 31 32 32
25 25 26 26 27 28 28 29 29 29 29 29 30 30 29 28 27 26 25 24 24 24 25 25 26 28 29 30 31 31 31 30 30 29 29 28 28 27 26 25 25 24 24 24 24 24 24 25 26 27 27 28 28 28 29 30 31 32 32 32 32 31 31 30 31 32 33 33 33
24 24 25 25 26 27 27 28 29 29 29 29 29 30 30 30 29 28 27 26 25 24 24 25 25 26 27 28 29 30 31 31 30 29 29 28 27 27 27 26 25 25 24 24 24 23 23 24 24 25 26 27 28 28 29 30 31 32 32 32 31 31 31 32 32 33 34 33 32
Wind_Direction
203 210 214 217 218 219 221 222 223 225 228 230 232 235 237 238 239 241 244 247 250 251 252 252 253 254 256 258 261 263 265 267 268 266 263 259 256 254 253 253 254 254 255 255 255 254 253 252 251 250 250 250 250 251 250 250 250 250 251 253 255 255 254 254 257 259 258 255 252
197 207 216 221 222 222 222 222 222 224 226 229 234 239 244 246 247 245 245 249 253 256 256 256 257 258 260 261 263 264 264 265 265 264 262 260 259 258 257 255 253 253 253 254 254 254 254 253 252 251 251 253 253 253 254 254 254 254 255 257 259 258 256 253 253 257 261 264 263
183 190 201 214 221 223 224 224 225 226 229 232 237 243 249 254 256 254 251 250 253 257 259 260 260 260 261 262 263 263 263 262 260 259 258 258 259 260 260 259 256 254 252 252 252 251 251 252 251 250 249 250 252 253 253 255 256 257 258 259 259 258 256 254 253 254 257 262 266
176 180 191 210 224 231 234 236 237 237 238 239 242 247 252 257 261 261 260 258 258 260 263 264 264 264 263 263 263 263 262 261 260 258 258 258 258 258 259 259 258 256 253 251 250 249 249 249 249 248 248 248 248 249 250 252 254 256 259 260 259 258 256 255 254 253 254 257 263
200 211 227 238 243 247 251 255 255 253 249 248 249 250 252 255 257 259 261 263 265 266 267 267 266 265 264 263 262 262 262 262 262 262 261 260 259 257 255 254 253 252 250 249 248 248 248 248 248 247 247 247 247 247 248 249 251 253 255 258 258 257 255 254 253 252 252 254 259
243 252 255 254 252 251 250 250 252 253 254 256 259 258 256 254 253 254 256 258 261 263 264 264 262 261 260 261 263 265 265 264 263 262 261 261 259 256 254 251 247 243 242 244 245 246 247 246 246 245 245 244 244 244 245 246 247 248 250 253 255 255 253 251 250 250 250 252 255
241 248 252 255 257 254 246 238 239 244 250 254 257 258 257 257 257 257 257 256 256 256 256 256 256 258 261 266 272 275 274 271 266 262 261 260 259 256 253 249 243 239 237 237 238 240 240 241 240 240 240 241 241 242 243 244 245 245 247 249 251 252 252 250 249 248 249 250 251
201 217 242 265 277 279 275 268 263 260 256 251 249 250 253 259 264 267 265 261 255 251 251 253 255 260 266 273 279 281 279 272 266 262 260 260 258 256 252 248 243 241 241 240 238 236 234 233 233 234 236 238 240 242 243 244 245 245 246 247 249 250 250 249 248 248 247 248 249
152 154 149 321 312 301 291 283 277 272 267 264 264 266 268 270 271 272 270 265 257 251 250 253 257 262 268 273 277 277 273 265 260 258 258 259 258 257 255 252 249 247 246 245 242 239 236 234 234 234 235 237 240 242 244 244 245 245 246 247 247 247 246 246 245 245 246 247 247
55 122 162 176 319 309 298 289 282 275 271 269 269 270 271 271 271 270 268 264 257 251 251 255 260 265 268 270 270 267 261 257 258 263 268 274 275 273 271 267 261 255 249 245 242 241 239 239 239 240 240 240 241 242 242 243 244 245 246 246 245 244 243 242 243 243 245 246 246
350 328 289 266 301 322 320 314 305 294 283 275 272 272 272 272 271 271 269 265 260 257 259 263 267 268 268 266 262 255 250 252 261 274 286 292 290 285 278 271 264 258 252 248 248 249 248 246 244 243 242 242 241 241 241 242 243 245 245 244 243 242 241 240 240 241 243 245 244
312 326 326 322 327 330 328 320 313 305 299 294 289 286 285 285 288 286 281 276 273 272 273 274 273 270 265 260 256 255 260 266 274 280 284 287 287 283 275 267 260 256 255 256 259 260 258 255 251 248 245 244 245 246 246 246 245 244 243 242 242 241 240 240 239 240 242 244 245
296 311 317 318 319 318 316 312 307 303 300 300 300 300 301 303 307 301 289 277 274 275 275 274 271 266 259 253 254 262 273 283 286 285 282 278 277 275 270 264 259 256 256 258 260 261 260 258 256 253 252 252 253 255 254 251 246 243 242 242 242 241 242 243 243 243 245 246 246
290 297 302 305 308 310 309 306 304 301 299 299 301 302 304 307 309 305 293 277 268 266 266 267 268 265 259 252 252 258 269 278 282 281 277 274 272 270 267 262 258 256 256 257 258 257 257 257 255 253 251 251 253 254 253 249 245 242 241 241 241 243 245 247 247 246 245 244 242
281 285 291 296 303 308 310 308 305 302 300 299 300 300 300 300 301 301 296 286 274 268 267 270 273 273 267 257 250 249 255 264 271 275 276 275 272 269 265 261 257 255 255 255 254 254 254 255 254 251 248 246 248 249 250 248 247 246 245 245 246 248 251 252 251 248 244 240 237
276 281 287 295 304 309 310 307 304 301 298 297 296 295 295 294 293 293 292 289 283 278 275 276 278 277 271 259 248 245 249 257 264 269 271 272 271 269 266 261 257 254 253 253 253 252 253 254 254 251 248 246 247 250 252 253 253 253 252 252 253 256 258 259 258 253 248 242 237
283 288 294 297 299 298 297 295 293 291 289 287 286 286 286 286 287 287 286 284 283 281 280 279 277 273 266 255 245 242 244 250 255 259 262 263 265 266 264 261 257 254 253 253 253 253 252 252 252 251 250 249 250 253 256 259 259 259 259 259 259 261 262 263 262 258 252 246 242
285 289 291 288 285 282 280 279 278 278 277 277 277 277 277 278 279 280 280 279 279 280 279 277 273 267 259 252 244 241 241 243 246 249 252 255 258 259 258 256 255 254 254 255 255 255 254 252 251 250 250 251 252 254 257 259 261 262 263 263 263 264 264 264 262 259 255 250 248
276 276 276 276 275 274 274 274 274 274 273 274 275 277 278 279 279 278 276 276 276 277 277 274 269 264 258 252 246 242 241 241 242 242 244 247 249 250 249 248 247 248 249 252 255 256 256 254 253 251 251 251 253 254 256 257 259 261 263 264 264 264 263 262 260 257 254 251 250
288 284 282 282 282 282 282 282 282 282 281 279 279 280 282 285 286 284 282 279 277 275 273 270 264 261 259 256 251 246 243 243 242 241 240 240 243 245 246 245 244 243 244 248 252 255 257 258 257 256 255 255 255 256 256 256 258 260 262 264 264 263 262 259 257 255 252 249 247
309 305 302 298 296 293 292 291 290 290 289 287 283 278 274 272 275 278 280 279 277 274 272 268 262 259 259 259 256 252 248 246 244 243 241 241 241 244 246 247 247 247 247 249 252 255 258 260 261 261 260 260 260 259 258 257 257 259 261 263 263 262 260 257 255 252 249 245 241
315 313 310 306 303 300 299 298 297 295 293 291 289 285 279 271 265 263 264 267 269 269 268 268 265 262 260 260 260 258 254 251 250 248 247 246 246 247 248 250 251 252 253 254 256 258 260 262 263 263 263 262 262 261 259 258 257 259 260 262 262 260 258 254 251 247 242 236 233
310 309 309 307 305 304 302 301 301 299 298 296 294 292 289 283 277 270 265 262 261 262 263 264 263 261 260 261 263 264 263 261 258 257 255 255 254 253 253 254 255 256 257 259 260 262 265 266 266 264 263 262 261 260 259 258 257 258 259 260 259 257 254 251 246 241 234 229 227
303 303 303 303 302 302 301 299 299 298 297 295 294 292 291 289 287 282 277 270 265 262 261 261 260 259 258 258 261 264 266 267 267 266 264 263 262 261 260 260 259 260 260 261 263 265 267 268 267 265 262 261 261 260 259 257 256 257 258 258 257 254 250 246 242 236 231 229 229
300 299 299 298 298 298 298 297 297 296 295 293 292 290 289 289 288 287 284 281 275 270 265 262 260 259 258 257 257 259 261 264 267 269 269 268 267 266 266 265 265 264 264 264 265 266 267 267 266 263 262 262 262 261 260 258 257 257 257 257 254 250 245 242 239 236 233 233 235
304 302 300 299 298 297 297 297 296 296 294 292 290 289 288 287 286 286 285 284 282 278 273 269 265 262 261 260 259 259 259 260 262 265 268 269 270 270 270 270 270 270 269 268 267 267 267 265 263 262 261 262 262 262 261 259 258 257 257 257 253 247 242 240 240 238 236 236 238
311 309 306 303 301 298 297 296 294 293 291 289 288 287 287 285 285 285 284 284 283 281 278 275 272 269 266 264 262 262 261 261 261 262 264 266 268 270 271 272 273 273 274 272 270 267 265 263 261 260 260 261 261 260 259 258 258 257 257 256 252 247 243 242 242 241 238 237 238
314 312 309 306 303 301 297 295 292 290 288 286 285 285 284 283 284 284 284 284 283 282 280 278 276 274 272 270 267 265 263 262 263 263 264 265 266 267 269 270 272 274 276 276 273 269 265 262 259 259 259 259 258 257 256 255 256 256 256 256 253 249 245 245 245 243 239 236 236
312 311 309 307 305 302 299 296 293 290 288 286 284 283 282 282 282 282 283 283 284 284 283 281 278 276 276 275 274 270 267 264 263 263 265 266 266 266 266 268 269 272 274 276 275 272 267 262 259 257 257 257 256 254 252 251 252 254 254 254 253 251 249 248 247 244 240 236 235
309 309 308 307 305 303 300 298 295 292 290 288 286 284 283 282 281 280 280 281 282 283 284 283 282 281 281 280 279 277 273 268 264 263 263 265 266 267 267 268 268 270 272 274 275 273 268 263 259 257 256 256 255 253 250 248 249 250 252 252 252 251 250 250 249 246 242 238 236
307 307 306 305 304 303 301 299 297 294 291 290 288 286 284 282 281 280 279 279 279 280 281 282 283 284 284 284 283 281 279 275 270 266 264 263 264 265 267 268 270 271 272 273 274 273 269 264 259 257 256 256 255 253 250 247 246 247 248 249 249 249 249 249 249 247 245 241 239
305 305 305 304 303 302 301 300 298 296 294 292 290 288 286 284 282 280 278 277 277 277 278 280 282 283 284 285 285 284 283 282 279 275 271 267 265 265 265 266 268 270 271 272 274 274 272 267 263 259 257 256 255 253 251 248 246 245 244 245 246 247 247 247 247 247 246 244 242
302 303 303 303 302 301 301 300 300 299 297 295 293 291 289 286 283 281 279 277 276 276 276 277 278 280 282 284 285 286 287 286 285 283 279 276 272 269 267 266 266 267 268 269 271 272 273 271 268 263 260 257 256 254 252 249 247 244 243 242 243 244 245 246 246 246 246 245 245
299 300 301 302 301 301 300 300 300 299 299 298 297 295 293 290 287 284 281 278 276 275 274 274 275 276 278 281 283 285 286 287 286 285 282 278 275 271 268 267 266 266 266 266 267 268 269 269 268 265 262 260 258 256 253 251 248 246 243 242 242 242 243 244 245 246 246 247 246
298 299 300 300 300 300 300 299 299 299 298 298 298 297 296 295 292 289 286 282 279 276 274 273 272 273 275 276 279 281 283 284 285 284 281 276 272 269 267 266 266 265 265 264 264 264 264 264 263 263 261 260 258 256 254 252 249 247 246 244 244 243 244 244 245 246 246 247 247
298 299 299 299 299 299 299 299 298 298 298 297 297 297 296 296 295 293 290 287 283 280 277 274 273 272 272 273 275 278 280 282 282 282 279 276 272 269 267 267 267 267 265 263 261 260 259 258 258 257 257 257 256 255 254 252 250 249 248 247 247 247 247 247 247 248 248 248 248
300 300 299 298 298 298 298 298 298 298 297 296 296 295 295 295 295 295 293 291 288 285 281 278 275 273 272 272 273 275 276 278 280 280 279 277 274 271 269 268 268 268 267 265 263 260 258 256 255 254 253 253 253 253 253 252 251 250 249 249 249 249 250 250 250 251 251 251 250
302 301 300 299 297 297 297 297 297 297 297 296 295 294 294 294 295 295 294 294 292 290 286 283 279 276 274 273 272 272 273 275 277 279 279 278 277 274 272 270 269 268 267 267 266 264 261 258 256 254 253 252 252 252 253 253 252 251 250 250 250 250 250 251 252 252 253 252 252
305 304 302 300 298 297 296 296 296 296 295 295 294 293 293 292 293 293 294 295 294 293 291 288 284 281 278 275 273 272 272 273 275 277 278 279 278 277 276 273 271 269 267 266 266 265 264 262 259 257 255 253 253 253 254 254 253 252 251 250 250 250 250 251 252 252 252 251 249
308 306 304 302 300 298 297 296 295 294 294 294 294 293 292 291 290 291 292 293 294 294 293 291 288 285 281 278 275 273 272 272 273 275 277 278 279 279 278 276 274 271 269 266 265 264 263 262 260 258 256 255 255 254 254 254 254 253 251 250 249 249 250 250 250 249 248 247 245
312 310 307 305 302 300 298 296 294 293 293 293 293 293 292 291 289 289 289 290 292 293 294 294 292 289 285 281 278 275 273 272 272 273 275 277 278 279 278 277 276 274 271 269 265 263 262 261 260 258 257 255 254 254 253 253 252 251 250 249 248 249 249 248 247 245 243 242 240
Height
1462 1463 1464 1465 1466 1467 1468 1469 1470 1471 1471 1472 1473 1473 1474 1474 1475 1475 1476 1476 1477 1478 1478 1479 1480 1481 1482 1483 1483 1484 1484 1483 1484 1485 1487 1489 1491 1492 1493 1494 1495 1495 1495 1496 1496 1496 1496 1496 1497 1498 1499 1500 1501 1502 1503 1504 1505 1505 1505 1504 1501 1500 1500 1501 1503 1505 1506 1507 1507
1461 1462 1463 1464 1465 1466 1467 1468 1469 1469 1470 1470 1471 1471 1472 1473 1473 1474 1475 1475 1475 1476 1476 1477 1478 1479 1480 1481 1481 1482 1482 1482 1483 1484 1486 1487 1487 1488 1489 1491 1491 1492 1492 1492 1493 1493 1493 1493 1494 1494 1495 1496 1498 1499 1500 1501 1502 1502 1502 1501 1500 1499 1498 1498 1499 1501 1503 1504 1505
1460 1461 1463 1463 1464 1465 1466 1467 1467 1468 1469 1469 1470 1470 1471 1471 1471 1472 1472 1473 1473 1474 1474 1475 1475 1476 1477 1478 1479 1480 1481 1481 1483 1484 1485 1485 1486 1486 1486 1486 1487 1488 1489 1490 1490 1490 1490 1491 1491 1491 1491 1492 1494 1495 1496 1498 1499 1500 1500 1499 1498 1497 1496 1496 1496 1497 1499 1501 1502
1459 1460 1461 1462 1463 1464 1465 1466 1466 1467 1468 1468 1468 1469 1469 1469 1470 1470 1471 1471 1471 1472 1472 1473 1474 1474 1475 1476 1477 1479 1480 1481 1482 1483 1483 1483 1483 1484 1484 1484 1484 1484 1485 1486 1486 1486 1487 1488 1488 1488 1488 1489 1489 1490 1492 1494 1496 1497 1497 1496 1496 1495 1494 1494 1494 1494 1495 1496 1498
1458 1459 1460 1461 1462 1463 1464 1465 1466 1466 1466 1467 1467 1468 1468 1468 1469 1469 1469 1470 1471 1471 1472 1472 1473 1473 1474 1476 1477 1478 1479 1481 1481 1481 1481 1481 1481 1481 1481 1482 1482 1482 1482 1482 1483 1483 1484 1484 1485 1485 1485 1485 1486 1486 1487 1489 1491 1492 1493 1493 1493 1493 1492 1492 1491 1492 1492 1492 1493
1459 1460 1460 1461 1462 1463 1463 1464 1465 1465 1466 1466 1466 1467 1467 1467 1468 1468 1469 1470 1470 1471 1471 1472 1472 1473 1474 1475 1476 1478 1479 1479 1479 1479 1479 1478 1478 1479 1479 1479 1480 1480 1481 1480 1480 1480 1480 1481 1481 1481 1481 1482 1482 1483 1484 1485 1486 1488 1489 1490 1490 1490 1490 1489 1489 1489 1489 1489 1489
1460 1460 1461 1461 1461 1462 1462 1463 1464 1464 1465 1465 1466 1466 1466 1467 1467 1467 1468 1469 1469 1470 1470 1471 1471 1472 1473 1474 1476 1476 1477 1477 1477 1476 1476 1476 1476 1476 1476 1477 1477 1478 1478 1479 1478 1478 1477 1477 1478 1478 1479 1479 1479 1480 1480 1481 1482 1483 1484 1485 1486 1487 1487 1487 1486 1486 1486 1486 1486
1459 1459 1460 1460 1461 1461 1462 1462 1463 1463 1464 1464 1465 1465 1466 1466 1466 1466 1466 1467 1467 1468 1469 1470 1470 1471 1472 1473 1474 1474 1475 1475 1475 1474 1474 1474 1474 1474 1474 1475 1475 1476 1476 1477 1477 1476 1476 1476 1476 1477 1477 1477 1477 1477 1477 1478 1478 1479 1480 1481 1482 1484 1485 1485 1484 1484 1484 1483 1483
1457 1457 1458 1459 1460 1461 1461 1462 1462 1463 1463 1464 1464 1464 1465 1465 1465 1465 1465 1465 1466 1467 1468 1468 1469 1470 1471 1471 1472 1473 1473 1474 1473 1473 1473 1473 1473 1473 1473 1473 1473 1474 1474 1475 1475 1475 1475 1475 1475 1476 1476 1475 1475 1475 1475 1475 1476 1476 1476 1477 1479 1481 1481 1481 1481 1482 1482 1482 1481
1456 1456 1457 1458 1459 1460 1461 1461 1461 1462 1462 1463 1464 1464 1464 1464 1463 1463 1464 1464 1465 1466 1466 1467 1468 1469 1470 1470 1471 1471 1472 1472 1472 1472 1472 1472 1472 1472 1472 1472 1472 1472 1472 1473 1473 1473 1473 1473 1474 1474 1474 1474 1474 1473 1473 1474 1474 1474 1474 1474 1476 1477 1478 1478 1479 1479 1480 1480 1479
1456 1456 1456 1456 1457 1458 1459 1460 1461 1461 1462 1462 1463 1463 1462 1462 1462 1462 1463 1463 1464 1465 1466 1466 1467 1468 1468 1469 1470 1471 1471 1471 1471 1471 1471 1471 1471 1471 1471 1471 1471 1471 1471 1472 1472 1472 1473 1473 1473 1472 1472 1472 1472 1472 1472 1472 1472 1472 1472 1473 1474 1474 1475 1475 1475 1476 1477 1478 1477
1455 1456 1456 1456 1456 1456 1457 1458 1459 1460 1461 1461 1461 1461 1461 1461 1461 1461 1462 1462 1463 1464 1465 1466 1466 1467 1467 1468 1468 1469 1470 1470 1470 1470 1470 1470 1470 1470 1470 1470 1471 1471 1471 1471 1471 1471 1472 1472 1472 1471 1471 1471 1471 1471 1471 1471 1471 1471 1472 1472 1472 1472 1472 1471 1472 1473 1474 1475 1475
1455 1455 1455 1456 1456 1456 1456 1457 1458 1459 1459 1460 1460 1460 1460 1460 1460 1461 1461 1462 1463 1464 1464 1465 1465 1466 1466 1466 1467 1468 1468 1469 1469 1469 1470 1469 1469 1469 1468 1468 1469 1469 1469 1469 1470 1470 1470 1471 1471 1471 1471 1470 1470 1470 1470 1470 1470 1470 1471 1471 1471 1470 1470 1469 1469 1470 1471 1472 1473
1455 1455 1455 1455 1455 1455 1455 1456 1456 1457 1458 1458 1458 1459 1459 1459 1460 1461 1461 1462 1463 1463 1464 1464 1464 1464 1464 1465 1466 1467 1468 1468 1468 1468 1468 1468 1467 1467 1466 1466 1467 1467 1468 1468 1468 1468 1468 1469 1469 1469 1469 1469 1469 1468 1468 1468 1469 1469 1469 1469 1469 1469 1468 1467 1468 1468 1470 1471 1472
1454 1454 1454 1454 1454 1454 1454 1454 1455 1456 1456 1456 1456 1457 1458 1458 1459 1460 1461 1462 1462 1462 1463 1463 1462 1462 1463 1464 1465 1466 1466 1466 1467 1467 1466 1466 1466 1465 1465 1465 1466 1466 1466 1466 1466 1466 1467 1467 1468 1468 1468 1468 1467 1467 1467 1467 1467 1468 1468 1468 1467 1467 1467 1467 1467 1467 1469 1470 1470
1453 1453 1453 1452 1452 1452 1452 1453 1454 1454 1455 1455 1456 1456 1457 1457 1458 1459 1460 1461 1461 1461 1461 1461 1462 1462 1462 1463 1463 1464 1465 1465 1465 1465 1465 1465 1464 1464 1464 1464 1464 1464 1465 1465 1465 1465 1465 1466 1466 1467 1467 1467 1466 1466 1466 1466 1466 1466 1466 1466 1466 1466 1466 1466 1466 1467 1468 1469 1469
1451 1451 1451 1451 1451 1452 1452 1453 1454 1454 1454 1455 1455 1456 1456 1457 1457 1458 1459 1459 1460 1460 1460 1461 1461 1461 1461 1461 1462 1462 1463 1463 1464 1464 1464 1463 1463 1463 1463 1463 1463 1463 1463 1463 1463 1463 1464 1465 1465 1466 1466 1466 1466 1465 1465 1465 1465 1465 1465 1465 1465 1465 1465 1465 1466 1466 1467 1467 1468
1450 1450 1451 1451 1452 1452 1453 1453 1454 1454 1454 1454 1455 1455 1455 1456 1456 1456 1457 1458 1458 1458 1458 1459 1459 1460 1460 1460 1460 1461 1461 1461 1462 1462 1462 1462 1462 1462 1462 1462 1462 1462 1462 1462 1462 1462 1462 1463 1464 1465 1465 1465 1465 1465 1465 1464 1464 1464 1464 1464 1464 1464 1464 1464 1464 1465 1465 1466 1466
1449 1450 1450 1451 1451 1452 1452 1452 1453 1453 1453 1453 1454 1454 1454 1454 1454 1455 1455 1456 1456 1457 1457 1457 1457 1458 1458 1458 1458 1459 1459 1460 1460 1460 1460 1460 1461 1461 1460 1461 1461 1461 1461 1461 1461 1461 1461 1461 1462 1463 1463 1464 1464 1464 1464 1463 1463 1463 1463 1462 1462 1462 1462 1463 1463 1463 1463 1464 1465
1449 1449 1449 1450 1450 1450 1451 1451 1451 1451 1451 1451 1452 1453 1453 1453 1453 1454 1454 1454 1455 1455 1456 1456 1456 1456 1456 1456 1456 1457 1457 1458 1458 1458 1458 1459 1459 1459 1459 1459 1459 1459 1459 1460 1459 1459 1459 1460 1460 1461 1462 1462 1462 1462 1462 1462 1462 1462 1461 1461 1461 1461 1461 1461 1461 1462 1462 1463 1463
1449 1449 1449 1449 1449 1449 1450 1450 1450 1450 1451 1451 1451 1451 1452 1452 1453 1453 1453 1453 1454 1454 1454 1454 1454 1455 1455 1455 1455 1455 1455 1456 1456 1457 1457 1457 1457 1457 1457 1457 1457 1457 1457 1457 1457 1458 1458 1458 1459 1459 1460 1460 1461 1461 1461 1461 1461 1461 1460 1460 1460 1460 1460 1460 1460 1461 1461 1461 1462
1449 1449 1449 1449 1449 1449 1449 1449 1449 1449 1450 1450 1450 1450 1450 1451 1451 1451 1452 1452 1453 1453 1453 1453 1453 1453 1453 1453 1453 1453 1453 1454 1455 1455 1455 1456 1456 1456 1456 1456 1456 1456 1456 1456 1456 1456 1456 1457 1457 1458 1458 1458 1458 1459 1459 1459 1459 1459 1459 1459 1458 1458 1458 1459 1459 1460 1460 1461 1461
1448 1448 1448 1448 1448 1448 1448 1448 1448 1448 1448 1448 1448 1448 1449 1449 1449 1449 1450 1451 1451 1452 1452 1452 1452 1452 1452 1452 1452 1452 1452 1452 1452 1453 1454 1454 1454 1454 1454 1454 1454 1454 1454 1454 1454 1455 1455 1456 1456 1456 1456 1456 1456 1457 1457 1457 1457 1457 1458 1457 1457 1457 1457 1457 1458 1459 1459 1460 1460
1448 1448 1448 1448 1448 1448 1447 1447 1447 1447 1447 1447 1447 1447 1447 1447 1447 1448 1448 1449 1449 1450 1450 1450 1450 1450 1451 1451 1451 1451 1451 1451 1451 1451 1451 1452 1452 1453 1453 1453 1452 1452 1452 1452 1453 1453 1454 1454 1454 1454 1455 1455 1455 1455 1455 1456 1456 1456 1456 1456 1456 1456 1456 1456 1457 1457 1458 1459 1459
1448 1448 1448 1447 1447 1447 1447 1447 1446 1446 1446 1446 1446 1446 1446 1446 1446 1446 1446 1447 1447 1448 1448 1449 1449 1449 1449 1449 1449 1450 1450 1450 1450 1449 1449 1449 1450 1450 1451 1451 1451 1451 1451 1451 1451 1452 1452 1452 1453 1453 1453 1453 1453 1453 1454 1454 1454 1455 1455 1455 1455 1455 1455 1455 1456 1456 1457 1457 1458
1448 1448 1447 1447 1447 1446 1446 1446 1446 1446 1445 1445 1445 1445 1445 1445 1445 1445 1445 1445 1445 1446 1446 1446 1446 1447 1447 1447 1448 1448 1448 1448 1448 1448 1447 1447 1447 1448 1448 1448 1449 1449 1449 1449 1450 1450 1451 1451 1451 1451 1451 1451 1451 1452 1452 1452 1453 1453 1453 1453 1454 1454 1454 1454 1455 1455 1456 1456 1457
1447 1447 1447 1446 1446 1446 1446 1445 1445 1445 1445 1444 1444 1444 1444 1444 1444 1444 1444 1444 1444 1444 1444 1444 1444 1445 1445 1446 1446 1447 1447 1447 1447 1446 1446 1446 1446 1446 1446 1446 1446 1446 1447 1447 1447 1448 1448 1449 1449 1449 1450 1450 1450 1450 1450 1450 1451 1451 1451 1452 1452 1452 1452 1453 1453 1454 1455 1455 1456
1446 1446 1446 1446 1445 1445 1445 1445 1444 1444 1444 1444 1444 1443 1443 1443 1443 1443 1442 1442 1442 1442 1442 1442 1442 1442 1443 1443 1444 1444 1445 1445 1445 1445 1445 1445 1444 1444 1444 1444 1444 1445 1445 1445 1445 1446 1446 1446 1447 1447 1448 1448 1448 1448 1448 1448 1449 1449 1450 1450 1451 1451 1451 1451 1452 1453 1453 1454 1454
1446 1446 1445 1445 1445 1444 1444 1444 1443 1443 1443 1443 1442 1442 1442 1442 1442 1442 1441 1441 1441 1440 1440 1440 1440 1441 1441 1441 1441 1442 1442 1443 1443 1443 1443 1443 1443 1443 1442 1442 1443 1443 1443 1443 1443 1444 1444 1445 1445 1446 1446 1446 1446 1446 1446 1446 1447 1447 1448 1448 1449 1449 1450 1450 1451 1451 1451 1452 1452
1445 1445 1445 1444 1444 1444 1443 1443 1442 1442 1442 1441 1441 1441 1441 1441 1441 1441 1440 1440 1440 1439 1439 1438 1438 1438 1439 1439 1439 1439 1440 1440 1441 1441 1441 1441 1441 1441 1441 1441 1441 1441 1441 1442 1441 1441 1442 1443 1443 1444 1444 1444 1444 1444 1444 1445 1445 1445 1446 1446 1447 1447 1448 1449 1449 1449 1450 1450 1451
1445 1444 1444 1444 1443 1443 1443 1442 1442 1441 1441 1441 1441 1440 1440 1440 1439 1439 1439 1439 1438 1438 1437 1437 1436 1436 1436 1437 1437 1437 1437 1437 1438 1438 1439 1439 1439 1439 1439 1439 1439 1439 1440 1440 1440 1440 1440 1441 1441 1441 1442 1442 1442 1442 1442 1442 1443 1443 1443 1444 1445 1446 1446 1447 1447 1447 1448 1448 1449
1444 1444 1443 1443 1443 1442 1442 1441 1441 1441 1440 1440 1440 1439 1439 1438 1438 1438 1437 1437 1436 1436 1436 1435 1435 1435 1435 1435 1435 1435 1435 1435 1435 1436 1436 1436 1436 1436 1437 1437 1437 1437 1437 1438 1438 1438 1438 1438 1439 1440 1440 1440 1440 1440 1440 1440 1441 1441 1441 1442 1442 1443 1444 1445 1445 1446 1446 1446 1447
1444 1443 1443 1442 1442 1441 1441 1441 1440 1440 1439 1439 1439 1438 1438 1437 1437 1436 1436 1436 1435 1435 1434 1434 1433 1433 1433 1433 1433 1433 1432 1432 1433 1433 1433 1433 1434 1434 1434 1434 1435 1435 1435 1436 1436 1436 1436 1437 1437 1437 1437 1437 1437 1437 1438 1438 1439 1439 1439 1440 1440 1441 1441 1442 1443 1444 1444 1445 1445
1443 1442 1442 1441 1441 1441 1440 1440 1439 1439 1438 1438 1437 1437 1436 1436 1435 1435 1435 1434 1434 1433 1432 1432 1432 1431 1431 1431 1431 1431 1431 1431 1431 1431 1431 1431 1431 1432 1432 1432 1432 1432 1433 1433 1434 1434 1435 1435 1435 1436 1436 1436 1435 1435 1435 1436 1436 1437 1437 1438 1439 1439 1440 1440 1441 1441 1442 1443 1444
1441 1441 1441 1440 1440 1439 1439 1438 1438 1437 1437 1436 1436 1436 1435 1434 1434 1433 1433 1432 1432 1431 1431 1431 1430 1430 1430 1429 1429 1429 1429 1429 1429 1429 1429 1429 1430 1430 1430 1430 1430 1430 1430 1431 1431 1432 1432 1433 1433 1433 1433 1433 1433 1433 1433 1434 1435 1436 1436 1437 1437 1437 1438 1438 1439 1440 1440 1441 1441
1440 1440 1439 1439 1438 1438 1437 1436 1436 1436 1436 1435 1435 1434 1433 1433 1432 1431 1431 1431 1430 1429 1429 1429 1428 1428 1428 1427 1427 1427 1427 1427 1427 1427 1427 1427 1427 1427 1427 1427 1428 1428 1428 1429 1429 1429 1430 1430 1430 1431 1431 1431 1431 1431 1431 1432 1433 1434 1435 1435 1436 1436 1436 1437 1438 1438 1439 1439 1439
1439 1438 1438 1437 1436 1436 1436 1435 1435 1434 1434 1433 1433 1432 1432 1431 1431 1430 1429 1429 1428 1427 1427 1426 1426 1426 1426 1426 1425 1425 1425 1425 1425 1425 1425 1425 1425 1425 1425 1425 1426 1426 1426 1426 1427 1427 1427 1427 1427 1428 1428 1428 1429 1429 1429 1430 1431 1431 1432 1433 1434 1434 1435 1436 1436 1437 1438 1438 1437
1437 1437 1436 1435 1435 1434 1434 1433 1433 1432 1432 1431 1431 1431 1430 1430 1429 1429 1428 1427 1426 1426 1425 1425 1424 1424 1424 1423 1423 1423 1423 1423 1423 1422 1422 1422 1423 1423 1423 1423 1423 1424 1424 1425 1425 1425 1425 1425 1425 1426 1426 1426 1426 1427 1427 1428 1428 1429 1430 1431 1431 1432 1433 1434 1435 1436 1436 1436 1436
1436 1435 1435 1434 1433 1432 1432 1431 1431 1431 1430 1429 1429 1428 1428 1428 1428 1427 1426 1426 1425 1424 1423 1423 1422 1422 1421 1421 1421 1421 1421 1421 1421 1420 1420 1420 1420 1421 1421 1421 1421 1421 1422 1422 1423 1423 1423 1423 1424 1424 1424 1424 1424 1425 1425 1426 1426 1426 1427 1428 1429 1430 1431 1432 1433 1434 1435 1435 1435
1435 1434 1433 1432 1432 1431 1430 1430 1429 1429 1428 1427 1427 1426 1426 1426 1426 1425 1425 1424 1424 1423 1422 1421 1421 1420 1420 1419 1419 1418 1418 1418 1418 1418 1418 1418 1418 1418 1419 1419 1419 1419 1420 1421 1421 1421 1421 1422 1422 1422 1422 1422 1422 1423 1423 1424 1424 1424 1425 1426 1426 1427 1428 1430 1431 1431 1432 1433 1433
1433 1433 1432 1431 1431 1430 1429 1428 1427 1427 1426 1426 1425 1424 1424 1423 1423 1423 1423 1422 1422 1421 1421 1420 1419 1419 1418 1417 1417 1416 1416 1416 1416 1416 1416 1416 1416 1416 1416 1417 1417 1418 1418 1419 1419 1419 1420 1420 1420 1421 1421 1421 1421 1421 1421 1421 1422 1422 1423 1423 1424 1425 1426 1427 1428 1429 1430 1431 1431